Change the Weather History Date:

Monday, October 15, 2012

  Actual Average (KSDA) Record (KSDA)
Temperature  
Mean Temperature 60 °F -  
Max Temperature 75 °F 69 °F 89 °F (1999)
Min Temperature 45 °F 43 °F 28 °F (1952)
Degree Days  
Heating Degree Days 6    
Growing Degree Days 10 (Base 50)    
Moisture  
Dew Point 44 °F    
Average Humidity 59    
Maximum Humidity 84    
Minimum Humidity 34    
Precipitation  
Precipitation 0.00 in - - ()
Sea Level Pressure  
Sea Level Pressure 29.91 in    
Wind  
Wind Speed 6 mph (South)    
Max Wind Speed 13 mph    
Max Gust Speed 17 mph    
Visibility 9 miles    
Events      
Averages and records for this station are not official NWS values.
T = Trace of Precipitation, MM = Missing Value Source: NWS Daily Summary

Daily Weather History Graph

Daily Weather History Graph

Search for Another Location

Airport or City:

Trip Planner

Search our weather history database for the weather conditions in past years. The results will help you decide how hot, cold, wet, or windy it might be!

Date:

Astronomy

Oct. 15, 2012 Rise Set
Actual Time 7:35 AM CDT 6:42 PM CDT
Civil Twilight 7:07 AM CDT 7:09 PM CDT
Nautical Twilight 6:35 AM CDT 7:41 PM CDT
Astronomical Twilight 6:04 AM CDT 8:13 PM CDT
Moon 7:47 AM CDT (10/15) 6:42 PM CDT (10/15)
Length of Visible Light 12h 02m
Length of Day
11h 07m
New Moon, 0% of the Moon is Illuminated
Oct 15
New Moon
Oct 21
First Quarter
Oct 29
Full
Nov 6
Last Quarter
Nov 13
New

Hourly Weather History & Observations

Time (CDT) Temp. Windchill Dew Point Humidity Pressure Visibility Wind Dir Wind Speed Gust Speed Precip Events Conditions
12:15 AM 51.4 °F - 41.4 °F 68% 29.99 in 10.0 mi West 9.2 mph - N/A   Clear
12:35 AM 52.3 °F - 41.0 °F 65% 29.99 in 10.0 mi West 9.2 mph - N/A   Clear
12:55 AM 51.3 °F - 41.2 °F 68% 29.99 in 10.0 mi West 10.4 mph - N/A   Clear
1:15 AM 52.2 °F - 41.2 °F 66% 29.98 in 10.0 mi West 9.2 mph - N/A   Mostly Cloudy
1:35 AM 53.8 °F - 40.1 °F 60% 29.98 in 10.0 mi West 6.9 mph - N/A   Scattered Clouds
1:55 AM 53.4 °F - 40.1 °F 61% 29.98 in 10.0 mi West 6.9 mph - N/A   Scattered Clouds
2:15 AM 52.5 °F - 41.4 °F 66% 29.98 in 10.0 mi Calm Calm - N/A   Mostly Cloudy
2:35 AM 51.1 °F - 40.1 °F 66% 29.98 in 10.0 mi Calm Calm - N/A   Scattered Clouds
2:55 AM 50.2 °F - 40.1 °F 68% 29.99 in 10.0 mi Calm Calm - N/A   Clear
3:15 AM 50.0 °F - 40.1 °F 69% 29.98 in 10.0 mi Calm Calm - N/A   Clear
3:35 AM 47.7 °F - 40.5 °F 76% 29.98 in 10.0 mi Calm Calm - N/A   Clear
3:55 AM 49.3 °F - 40.3 °F 71% 29.98 in 10.0 mi Calm Calm - N/A   Clear
4:15 AM 52.0 °F - 39.7 °F 63% 29.97 in 10.0 mi Calm Calm - N/A   Clear
4:55 AM 51.4 °F - 39.6 °F 64% 29.98 in 10.0 mi Calm Calm - N/A   Clear
5:15 AM 50.9 °F - 39.4 °F 65% 29.98 in 10.0 mi Calm Calm - N/A   Clear
5:55 AM 49.3 °F - 39.6 °F 69% 29.99 in 10.0 mi Calm Calm - N/A   Clear
6:15 AM 50.0 °F - 39.9 °F 68% 29.99 in 10.0 mi Calm Calm - N/A   Clear
6:35 AM 45.0 °F 41.2 °F 39.6 °F 81% 29.98 in 10.0 mi SSE 6.9 mph - N/A   Clear
6:55 AM 46.6 °F - 40.6 °F 80% 29.98 in 10.0 mi Calm Calm - N/A   Clear
7:15 AM 46.4 °F - 40.6 °F 80% 29.98 in 10.0 mi Calm Calm - N/A   Clear
7:35 AM 46.4 °F - 40.8 °F 81% 29.98 in 10.0 mi Calm Calm - N/A   Clear
7:55 AM 47.1 °F - 40.6 °F 78% 29.99 in 10.0 mi SSE 4.6 mph - N/A   Clear
8:15 AM 47.7 °F - 41.4 °F 79% 29.99 in 10.0 mi South 4.6 mph - N/A   Clear
8:35 AM 48.2 °F - 43.5 °F 84% 29.99 in 10.0 mi Calm Calm - N/A   Clear
8:55 AM 50.0 °F - 45.0 °F 83% 29.99 in 10.0 mi Calm Calm - N/A   Clear
9:15 AM 52.0 °F - 44.8 °F 76% 29.99 in 10.0 mi Calm Calm - N/A   Clear
9:35 AM 53.8 °F - 44.2 °F 70% 29.99 in 10.0 mi SSE 6.9 mph - N/A   Clear
9:55 AM 55.6 °F - 43.3 °F 63% 29.99 in 10.0 mi SSE 5.8 mph - N/A   Clear
10:15 AM 57.4 °F - 42.6 °F 58% 30.00 in 10.0 mi SSE 8.1 mph - N/A   Clear
10:55 AM 61.0 °F - 44.2 °F 54% 29.99 in 10.0 mi SSE 6.9 mph - N/A   Clear
11:15 AM 61.9 °F - 44.2 °F 52% 29.98 in 10.0 mi SSE 6.9 mph - N/A   Clear
11:35 AM 63.9 °F - 44.8 °F 50% 29.97 in 10.0 mi SSE 6.9 mph - N/A   Clear
11:55 AM 65.8 °F - 43.3 °F 44% 29.97 in 10.0 mi South 10.4 mph - N/A   Clear
12:15 PM 67.3 °F - 44.4 °F 44% 29.96 in 10.0 mi South 6.9 mph - N/A   Clear
12:35 PM 68.0 °F - 44.8 °F 43% 29.96 in 10.0 mi South 8.1 mph - N/A   Clear
12:55 PM 68.9 °F - 44.8 °F 42% 29.95 in 10.0 mi SSE 6.9 mph - N/A   Clear
1:15 PM 70.2 °F - 44.4 °F 40% 29.94 in 10.0 mi South 8.1 mph - N/A   Clear
1:35 PM 71.4 °F - 43.9 °F 37% 29.93 in 10.0 mi SE 6.9 mph - N/A   Clear
1:55 PM 72.1 °F - 43.7 °F 36% 29.92 in 10.0 mi South 6.9 mph - N/A   Clear
2:15 PM 72.9 °F - 43.7 °F 35% 29.91 in 10.0 mi SSE 4.6 mph - N/A   Clear
2:35 PM 73.4 °F - 44.2 °F 35% 29.90 in 10.0 mi Calm Calm - N/A   Clear
2:55 PM 73.4 °F - 44.4 °F 35% 29.89 in 10.0 mi South 6.9 mph - N/A   Clear
3:15 PM 73.8 °F - 44.1 °F 34% 29.89 in 10.0 mi South 6.9 mph - N/A   Clear
3:35 PM 73.8 °F - 45.3 °F 36% 29.87 in 10.0 mi South 11.5 mph - N/A   Clear
3:55 PM 74.5 °F - 44.8 °F 35% 29.87 in 10.0 mi SSE 12.7 mph - N/A   Clear
4:15 PM 74.7 °F - 45.1 °F 35% 29.86 in 10.0 mi SSW 12.7 mph 17.3 mph N/A   Clear
4:35 PM 74.1 °F - 44.8 °F 35% 29.86 in 10.0 mi South 10.4 mph - N/A   Clear
4:55 PM 72.9 °F - 45.5 °F 38% 29.85 in 10.0 mi South 9.2 mph - N/A   Clear
5:15 PM 71.6 °F - 46.4 °F 41% 29.84 in 10.0 mi South 9.2 mph - N/A   Clear
5:35 PM 72.5 °F - 46.4 °F 39% 29.84 in 10.0 mi SSE 9.2 mph - N/A   Clear
5:55 PM 71.1 °F - 47.1 °F 42% 29.83 in 7.0 mi SSE 6.9 mph - N/A   Clear
6:15 PM 70.5 °F - 46.4 °F 42% 29.83 in 3.0 mi SE 8.1 mph - N/A   Haze
6:35 PM 69.1 °F - 46.4 °F 44% 29.82 in 5.0 mi SE 8.1 mph - N/A   Haze
6:55 PM 68.0 °F - 46.4 °F 46% 29.82 in 5.0 mi SE 9.2 mph - N/A   Haze
7:15 PM 66.2 °F - 46.9 °F 50% 29.82 in 4.0 mi SE 6.9 mph - N/A   Haze
7:35 PM 64.4 °F - 47.3 °F 54% 29.82 in 3.0 mi SSE 6.9 mph - N/A   Haze
7:55 PM 62.1 °F - 47.5 °F 59% 29.82 in 7.0 mi SSE 5.8 mph - N/A   Clear
8:15 PM 60.4 °F - 47.7 °F 63% 29.82 in 10.0 mi SSE 5.8 mph - N/A   Clear
8:35 PM 59.7 °F - 47.5 °F 64% 29.81 in 10.0 mi SSE 5.8 mph - N/A   Clear
8:55 PM 59.9 °F - 48.2 °F 65% 29.82 in 10.0 mi SSE 8.1 mph - N/A   Clear
9:15 PM 59.2 °F - 48.2 °F 67% 29.81 in 7.0 mi SSE 6.9 mph - N/A   Clear
9:35 PM 58.6 °F - 48.2 °F 68% 29.81 in 10.0 mi SSE 9.2 mph - N/A   Clear
9:55 PM 59.0 °F - 48.4 °F 68% 29.81 in 10.0 mi SSE 8.1 mph - N/A   Clear
10:15 PM 57.7 °F - 48.2 °F 70% 29.81 in 10.0 mi South 9.2 mph - N/A   Clear
10:35 PM 59.0 °F - 48.7 °F 69% 29.80 in 10.0 mi South 10.4 mph - N/A   Clear
10:55 PM 59.2 °F - 49.1 °F 69% 29.80 in 10.0 mi South 10.4 mph - N/A   Clear
11:15 PM 58.6 °F - 49.1 °F 71% 29.80 in 10.0 mi South 9.2 mph - N/A   Clear
11:35 PM 58.1 °F - 49.3 °F 72% 29.79 in 10.0 mi South 10.4 mph - N/A   Clear
11:55 PM 57.4 °F - 49.6 °F 75% 29.78 in 10.0 mi South 10.4 mph - N/A   Clear